FW9372 Weather Reports


Display with metric or nautical units.
time (UTC)temp
F
wind
direction
speed
MPH
gust
MPH
rain 1hr
in
rain 24hr
in
rain mn
in
humidity
%
barometer
mb
20260508181604 70 0 0.0 15.0 0.00 0.00 0.00 46 1010.9
20260508180105 70 245 2.0 11.0 0.00 0.00 0.00 44 1011.0
20260508174555 69 0 3.0 11.0 0.00 0.00 0.00 46 1011.0
20260508173057 69 0 0.0 13.0 0.00 0.00 0.00 49 1010.9
20260508171557 69 0 2.0 10.0 0.00 0.00 0.00 46 1011.4
20260508170101 69 172 0.0 6.0 0.00 0.00 0.00 48 1011.7
20260508164557 68 236 1.0 11.0 0.00 0.00 0.00 47 1012.0
20260508163106 68 0 0.0 9.0 0.00 0.00 0.00 48 1012.4
20260508161559 67 214 2.0 10.0 0.00 0.00 0.00 49 1012.5
20260508160057 67 0 0.0 9.0 0.00 0.00 0.00 49 1013.0
20260508154556 67 193 0.0 8.0 0.00 0.00 0.00 50 1013.0
20260508153108 66 246 1.0 8.0 0.00 0.00 0.00 50 1013.0
20260508151557 65 270 0.0 8.0 0.00 0.00 0.00 52 1013.4
20260508150059 64 0 0.0 7.0 0.00 0.00 0.00 54 1013.6
20260508144555 64 0 0.0 2.0 0.00 0.00 0.00 54 1013.7
20260508143116 62 0 0.0 6.0 0.00 0.00 0.00 60 1013.6
20260508141605 61 0 0.0 4.0 0.00 0.00 0.00 58 1013.8
20260508140118 59 215 0.0 2.0 0.00 0.00 0.00 62 1013.7
20260508134556 58 0 0.0 0.0 0.00 0.00 0.00 66 1013.7
20260508133103 55 0 0.0 1.0 0.00 0.00 0.00 73 1013.9
20260508131558 50 0 0.0 0.0 0.00 0.00 0.00 95 1013.7
20260508130058 47 0 0.0 0.0 0.00 0.00 0.00 98 1013.8
20260508124559 44 0 0.0 0.0 0.00 0.00 0.00 98 1013.6
20260508123055 42 0 0.0 0.0 0.00 0.00 0.00 98 1013.6
20260508121602 41 0 0.0 0.0 0.00 0.00 0.00 98 1013.7
20260508120113 39 0 0.0 0.0 0.00 0.00 0.00 97 1013.4
20260508114610 38 0 0.0 0.0 0.00 0.00 0.00 97 1013.5
20260508113107 36 0 0.0 0.0 0.00 0.00 0.00 97 1013.3
20260508111605 35 0 0.0 0.0 0.00 0.00 0.00 96 1013.3
20260508110106 35 0 0.0 0.0 0.00 0.00 0.00 96 1013.4
20260508104600 35 0 0.0 0.0 0.00 0.00 0.00 96 1013.2
20260508103100 35 0 0.0 0.0 0.00 0.00 0.00 96 1013.3
20260508101603 35 0 0.0 0.0 0.00 0.00 0.00 96 1013.2
20260508100130 35 0 0.0 0.0 0.00 0.00 0.00 96 1013.2
20260508094556 35 0 0.0 0.0 0.00 0.00 0.00 96 1013.2
20260508093055 35 0 0.0 0.0 0.00 0.00 0.00 96 1013.2
20260508091610 35 0 0.0 0.0 0.00 0.00 0.00 96 1013.3
20260508090059 35 0 0.0 0.0 0.00 0.00 0.00 96 1013.2
20260508084601 35 0 0.0 0.0 0.00 0.00 0.00 96 1013.2
20260508083059 35 0 0.0 0.0 0.00 0.00 0.00 95 1013.2
20260508081614 36 0 0.0 0.0 0.00 0.00 0.00 96 1013.4
20260508080059 36 0 0.0 0.0 0.00 0.00 0.00 95 1013.4
20260508074600 36 0 0.0 0.0 0.00 0.00 0.00 96 1013.7
20260508073055 36 0 0.0 0.0 0.00 0.00 0.00 96 1013.5
20260508071559 36 0 0.0 0.0 0.00 0.00 0.00 95 1013.6
20260508070058 36 0 0.0 0.0 0.00 0.00 0.00 95 1013.6
20260508064556 37 0 0.0 0.0 0.00 0.00 0.00 95 1013.7
20260508063058 37 0 0.0 0.0 0.00 0.00 0.00 95 1014.0
20260508061557 37 0 0.0 0.0 0.00 0.00 0.00 95 1013.9
20260508060111 37 0 0.0 0.0 0.00 0.00 0.00 94 1014.0
20260508054639 38 0 0.0 0.0 0.00 0.00 0.00 94 1014.0
20260508053056 38 0 0.0 0.0 0.00 0.00 0.00 94 1014.1
20260508051558 38 0 0.0 0.0 0.00 0.00 0.00 94 1014.2
20260508050057 39 0 0.0 0.0 0.00 0.00 0.00 93 1014.1
20260508044556 39 0 0.0 0.0 0.00 0.00 0.00 93 1014.4
20260508043100 39 0 0.0 0.0 0.00 0.00 0.00 93 1014.1
20260508041557 40 0 0.0 0.0 0.00 0.00 0.00 92 1014.1
20260508034600 40 0 0.0 0.0 0.00 0.00 0.00 91 1014.0
20260508033057 41 0 0.0 0.0 0.00 0.00 0.00 91 1014.1
20260508031602 41 0 0.0 0.0 0.00 0.00 0.00 89 1014.3
20260508030108 42 0 0.0 0.0 0.00 0.00 0.00 89 1014.2
20260508024607 42 0 0.0 0.0 0.00 0.00 0.00 88 1014.0
20260508023059 43 0 0.0 0.0 0.00 0.00 0.00 87 1014.1
20260508021558 43 0 0.0 0.0 0.00 0.00 0.00 84 1014.1
20260508020107 44 0 0.0 0.0 0.00 0.00 0.00 82 1013.7
20260508014611 46 0 0.0 0.0 0.00 0.00 0.00 79 1013.4
20260508013101 46 0 0.0 0.0 0.00 0.00 0.00 75 1013.3
20260508011614 48 0 0.0 0.0 0.00 0.00 0.00 73 1013.2
20260508004557 51 0 0.0 0.0 0.00 0.00 0.00 67 1012.9
20260508003103 53 0 0.0 0.0 0.00 0.00 0.00 64 1012.8
20260508001600 55 0 0.0 0.0 0.00 0.00 0.00 59 1012.6
20260508000057 59 0 0.0 0.0 0.00 0.00 0.00 53 1012.4
20260507234601 62 0 0.0 0.0 0.00 0.00 0.00 41 1012.5
20260507233055 62 0 0.0 0.0 0.00 0.00 0.00 40 1012.4
20260507231600 63 0 0.0 0.0 0.00 0.00 0.00 38 1012.5
20260507230059 63 0 0.0 0.0 0.00 0.00 0.00 39 1012.8
20260507224604 63 0 0.0 3.0 0.00 0.00 0.00 40 1012.9
20260507223059 64 0 0.0 2.0 0.00 0.00 0.00 40 1012.8
20260507221601 64 0 0.0 0.0 0.00 0.00 0.00 38 1012.9
20260507220105 64 0 0.0 1.0 0.00 0.00 0.00 39 1012.8
20260507214603 63 0 0.0 1.0 0.00 0.00 0.00 40 1012.6
20260507213104 63 0 0.0 3.0 0.00 0.00 0.00 38 1012.6
20260507211603 63 0 0.0 6.0 0.00 0.00 0.00 39 1012.6
20260507210103 63 0 0.0 8.0 0.00 0.00 0.00 42 1012.9
20260507204600 63 0 0.0 13.0 0.00 0.00 0.00 40 1012.9
20260507203101 63 0 0.0 3.0 0.00 0.00 0.00 43 1012.7
20260507201557 63 0 0.0 6.0 0.00 0.00 0.00 38 1012.9
20260507200059 63 0 0.0 4.0 0.00 0.00 0.00 37 1013.0
20260507194559 63 0 0.0 1.0 0.00 0.00 0.00 39 1013.0
20260507193058 62 0 0.0 4.0 0.00 0.00 0.00 37 1013.0
20260507191558 62 0 0.0 4.0 0.00 0.00 0.00 36 1013.2
20260507190055 62 345 0.0 6.0 0.00 0.00 0.00 41 1013.1
20260507184556 62 0 0.0 10.0 0.00 0.00 0.00 40 1013.3
20260507183056 62 0 0.0 1.0 0.00 0.00 0.00 38 1013.4